Time,TemperatureF,DewpointF,PressureIn,WindDirection,WindDirectionDegrees,WindSpeedMPH,WindSpeedGustMPH,Humidity,HourlyPrecipIn,Conditions,Clouds,dailyrainin,SoftwareType,DateUTC
2013-06-25 00:00:00,68.0,51.3,-100.00,North,-999,0.0,0.0,55,0.00,,,-99.99,FreeWX-Wi 1.01,2013-06-25 04:00:00,
2013-06-25 00:10:00,67.8,51.1,-100.00,North,-999,0.0,0.0,55,0.00,,,-99.99,FreeWX-Wi 1.01,2013-06-25 04:10:00,
2013-06-25 00:20:00,67.8,51.6,-100.00,North,-999,0.0,0.0,56,0.00,,,-99.99,FreeWX-Wi 1.01,2013-06-25 04:20:00,
2013-06-25 00:30:00,67.6,51.4,-100.00,North,-999,0.0,0.0,56,0.00,,,-99.99,FreeWX-Wi 1.01,2013-06-25 04:30:00,
2013-06-25 00:40:00,67.5,51.6,-100.00,North,-999,0.0,0.0,57,0.00,,,-99.99,FreeWX-Wi 1.01,2013-06-25 04:40:00,
2013-06-25 00:50:00,67.5,51.6,-100.00,North,-999,0.0,0.0,57,0.00,,,-99.99,FreeWX-Wi 1.01,2013-06-25 04:50:00,
2013-06-25 01:00:00,67.5,51.6,-100.00,North,-999,0.0,0.0,57,0.00,,,-99.99,FreeWX-Wi 1.01,2013-06-25 05:00:00,
2013-06-25 01:10:00,67.5,51.6,-100.00,North,-999,0.0,0.0,57,0.00,,,-99.99,FreeWX-Wi 1.01,2013-06-25 05:10:00,
2013-06-25 01:20:00,67.3,51.4,-100.00,North,-999,0.0,0.0,57,0.00,,,-99.99,FreeWX-Wi 1.01,2013-06-25 05:20:00,
2013-06-25 01:30:00,67.3,52.0,-100.00,North,-999,0.0,0.0,58,0.00,,,-99.99,FreeWX-Wi 1.01,2013-06-25 05:30:00,
2013-06-25 01:40:00,67.1,51.8,-100.00,North,-999,0.0,0.0,58,0.00,,,-99.99,FreeWX-Wi 1.01,2013-06-25 05:40:00,
2013-06-25 01:50:00,67.1,51.8,-100.00,North,-999,0.0,0.0,58,0.00,,,-99.99,FreeWX-Wi 1.01,2013-06-25 05:50:00,
2013-06-25 02:00:00,67.1,51.8,-100.00,North,-999,0.0,0.0,58,0.00,,,-99.99,FreeWX-Wi 1.01,2013-06-25 06:00:00,
2013-06-25 02:10:00,66.9,51.6,-100.00,North,-999,0.0,0.0,58,0.00,,,-99.99,FreeWX-Wi 1.01,2013-06-25 06:10:00,
2013-06-25 02:20:00,66.7,51.4,-100.00,North,-999,0.0,0.0,58,0.00,,,-99.99,FreeWX-Wi 1.01,2013-06-25 06:20:00,
2013-06-25 02:30:00,66.6,51.3,-100.00,North,-999,0.0,0.0,58,0.00,,,-99.99,FreeWX-Wi 1.01,2013-06-25 06:30:00,
2013-06-25 02:40:00,66.4,51.1,-100.00,North,-999,0.0,0.0,58,0.00,,,-99.99,FreeWX-Wi 1.01,2013-06-25 06:40:00,
2013-06-25 02:50:00,66.2,50.9,-100.00,North,-999,0.0,0.0,58,0.00,,,-99.99,FreeWX-Wi 1.01,2013-06-25 06:50:00,
2013-06-25 03:00:00,66.0,50.7,-100.00,North,-999,0.0,0.0,58,0.00,,,-99.99,FreeWX-Wi 1.01,2013-06-25 07:00:00,
2013-06-25 03:10:00,66.0,50.7,-100.00,North,-999,0.0,0.0,58,0.00,,,-99.99,FreeWX-Wi 1.01,2013-06-25 07:10:00,
2013-06-25 03:20:00,65.8,50.7,-100.00,North,-999,0.0,0.0,58,0.00,,,-99.99,FreeWX-Wi 1.01,2013-06-25 07:20:00,
2013-06-25 03:30:00,65.8,50.7,-100.00,North,-999,0.0,0.0,58,0.00,,,-99.99,FreeWX-Wi 1.01,2013-06-25 07:30:00,
2013-06-25 03:40:00,65.8,50.7,-100.00,North,-999,0.0,0.0,58,0.00,,,-99.99,FreeWX-Wi 1.01,2013-06-25 07:40:00,
2013-06-25 03:50:00,65.7,50.5,-100.00,North,-999,0.0,0.0,58,0.00,,,-99.99,FreeWX-Wi 1.01,2013-06-25 07:50:00,
2013-06-25 04:00:00,65.5,50.4,-100.00,North,-999,0.0,0.0,58,0.00,,,-99.99,FreeWX-Wi 1.01,2013-06-25 08:00:00,
2013-06-25 04:10:00,65.5,50.4,-100.00,North,-999,0.0,0.0,58,0.00,,,-99.99,FreeWX-Wi 1.01,2013-06-25 08:10:00,
2013-06-25 04:20:00,65.5,50.4,-100.00,North,-999,0.0,0.0,58,0.00,,,-99.99,FreeWX-Wi 1.01,2013-06-25 08:20:00,
2013-06-25 04:30:00,65.5,50.4,-100.00,North,-999,0.0,0.0,58,0.00,,,-99.99,FreeWX-Wi 1.01,2013-06-25 08:30:00,
2013-06-25 04:41:00,65.5,50.7,-100.00,North,-999,0.0,0.0,59,0.00,,,-99.99,FreeWX-Wi 1.01,2013-06-25 08:41:00,
2013-06-25 04:51:00,65.7,50.9,-100.00,North,-999,0.0,0.0,59,0.00,,,-99.99,FreeWX-Wi 1.01,2013-06-25 08:51:00,
2013-06-25 05:01:00,65.7,50.9,-100.00,North,-999,0.0,0.0,59,0.00,,,-99.99,FreeWX-Wi 1.01,2013-06-25 09:01:00,
2013-06-25 05:11:00,65.5,50.7,-100.00,North,-999,0.0,0.0,59,0.00,,,-99.99,FreeWX-Wi 1.01,2013-06-25 09:11:00,
2013-06-25 05:21:00,65.5,50.7,-100.00,North,-999,0.0,0.0,59,0.00,,,-99.99,FreeWX-Wi 1.01,2013-06-25 09:21:00,
2013-06-25 05:31:00,65.5,50.7,-100.00,North,-999,0.0,0.0,59,0.00,,,-99.99,FreeWX-Wi 1.01,2013-06-25 09:31:00,
2013-06-25 05:41:00,65.7,50.5,-100.00,North,-999,0.0,0.0,58,0.00,,,-99.99,FreeWX-Wi 1.01,2013-06-25 09:41:00,
2013-06-25 05:51:00,65.7,50.5,-100.00,North,-999,0.0,0.0,58,0.00,,,-99.99,FreeWX-Wi 1.01,2013-06-25 09:51:00,
2013-06-25 06:01:00,65.7,50.5,-100.00,North,-999,0.0,0.0,58,0.00,,,-99.99,FreeWX-Wi 1.01,2013-06-25 10:01:00,
2013-06-25 06:11:00,65.7,50.5,-100.00,North,-999,0.0,0.0,58,0.00,,,-99.99,FreeWX-Wi 1.01,2013-06-25 10:11:00,
2013-06-25 06:21:00,65.8,50.7,-100.00,North,-999,0.0,0.0,58,0.00,,,-99.99,FreeWX-Wi 1.01,2013-06-25 10:21:00,
2013-06-25 06:31:00,65.8,50.7,-100.00,North,-999,0.0,0.0,58,0.00,,,-99.99,FreeWX-Wi 1.01,2013-06-25 10:31:00,
2013-06-25 06:41:00,65.8,50.7,-100.00,North,-999,0.0,0.0,58,0.00,,,-99.99,FreeWX-Wi 1.01,2013-06-25 10:41:00,
2013-06-25 06:51:00,66.2,50.5,-100.00,North,-999,0.0,0.0,57,0.00,,,-99.99,FreeWX-Wi 1.01,2013-06-25 10:51:00,
2013-06-25 07:01:00,66.6,50.9,-100.00,North,-999,0.0,0.0,57,0.00,,,-99.99,FreeWX-Wi 1.01,2013-06-25 11:01:00,
2013-06-25 07:11:00,67.1,51.3,-100.00,North,-999,0.0,0.0,57,0.00,,,-99.99,FreeWX-Wi 1.01,2013-06-25 11:11:00,
2013-06-25 07:21:00,67.3,51.1,-100.00,North,-999,0.0,0.0,56,0.00,,,-99.99,FreeWX-Wi 1.01,2013-06-25 11:21:00,
2013-06-25 07:31:00,67.5,51.3,-100.00,North,-999,0.0,0.0,56,0.00,,,-99.99,FreeWX-Wi 1.01,2013-06-25 11:31:00,
2013-06-25 07:41:00,67.6,50.9,-100.00,North,-999,0.0,0.0,55,0.00,,,-99.99,FreeWX-Wi 1.01,2013-06-25 11:41:00,
2013-06-25 07:46:00,67.8,51.1,-100.00,North,-999,0.0,0.0,55,0.00,,,-99.99,FreeWX-Wi 1.01,2013-06-25 11:46:00,
2013-06-25 07:56:00,68.2,50.4,-100.00,North,-999,0.0,0.0,53,0.00,,,-99.99,FreeWX-Wi 1.01,2013-06-25 11:56:00,
2013-06-25 08:06:00,68.7,50.4,-100.00,North,-999,0.0,0.0,52,0.00,,,-99.99,FreeWX-Wi 1.01,2013-06-25 12:06:00,
2013-06-25 08:16:00,69.3,49.8,-100.00,North,-999,0.0,0.0,50,0.00,,,-99.99,FreeWX-Wi 1.01,2013-06-25 12:16:00,
2013-06-25 08:27:00,70.5,49.8,-100.00,North,-999,0.0,0.0,48,0.00,,,-99.99,FreeWX-Wi 1.01,2013-06-25 12:27:00,
2013-06-25 08:37:00,72.1,50.7,-100.00,North,-999,0.0,0.0,47,0.00,,,-99.99,FreeWX-Wi 1.01,2013-06-25 12:37:00,
2013-06-25 08:47:00,73.6,51.4,-100.00,North,-999,0.0,0.0,46,0.00,,,-99.99,FreeWX-Wi 1.01,2013-06-25 12:47:00,
2013-06-25 08:57:00,75.4,50.7,-100.00,North,-999,0.0,0.0,42,0.00,,,-99.99,FreeWX-Wi 1.01,2013-06-25 12:57:00,
2013-06-25 09:08:00,77.2,48.9,-100.00,North,-999,0.0,0.0,37,0.00,,,-99.99,FreeWX-Wi 1.01,2013-06-25 13:08:00,
2013-06-25 09:18:00,78.4,50.0,-100.00,North,-999,0.0,0.0,37,0.00,,,-99.99,FreeWX-Wi 1.01,2013-06-25 13:18:00,
2013-06-25 09:28:00,79.3,49.3,-100.00,North,-999,0.0,0.0,35,0.00,,,-99.99,FreeWX-Wi 1.01,2013-06-25 13:28:00,
2013-06-25 09:38:00,79.9,46.6,-100.00,North,-999,0.0,0.0,31,0.00,,,-99.99,FreeWX-Wi 1.01,2013-06-25 13:38:00,
2013-06-25 09:48:00,80.4,45.1,-100.00,North,-999,0.0,0.0,29,0.00,,,-99.99,FreeWX-Wi 1.01,2013-06-25 13:48:00,
2013-06-25 09:58:00,81.1,45.0,-100.00,North,-999,0.0,0.0,28,0.00,,,-99.99,FreeWX-Wi 1.01,2013-06-25 13:58:00,
2013-06-25 10:08:00,81.5,45.1,-100.00,North,-999,0.0,0.0,28,0.00,,,-99.99,FreeWX-Wi 1.01,2013-06-25 14:08:00,
2013-06-25 10:18:00,81.5,43.3,-100.00,North,-999,0.0,0.0,26,0.00,,,-99.99,FreeWX-Wi 1.01,2013-06-25 14:18:00,
2013-06-25 10:28:00,81.7,43.5,-100.00,North,-999,0.0,0.0,26,0.00,,,-99.99,FreeWX-Wi 1.01,2013-06-25 14:28:00,
2013-06-25 10:38:00,82.2,43.9,-100.00,North,-999,0.0,0.0,26,0.00,,,-99.99,FreeWX-Wi 1.01,2013-06-25 14:38:00,
2013-06-25 10:48:00,82.6,44.2,-100.00,North,-999,0.0,0.0,26,0.00,,,-99.99,FreeWX-Wi 1.01,2013-06-25 14:48:00,
2013-06-25 10:58:00,83.1,44.6,-100.00,North,-999,0.0,0.0,26,0.00,,,-99.99,FreeWX-Wi 1.01,2013-06-25 14:58:00,
2013-06-25 11:08:00,83.3,44.8,-100.00,North,-999,0.0,0.0,26,0.00,,,-99.99,FreeWX-Wi 1.01,2013-06-25 15:08:00,
2013-06-25 11:18:00,83.5,45.0,-100.00,North,-999,0.0,0.0,26,0.00,,,-99.99,FreeWX-Wi 1.01,2013-06-25 15:18:00,
2013-06-25 11:28:00,83.5,45.0,-100.00,North,-999,0.0,0.0,26,0.00,,,-99.99,FreeWX-Wi 1.01,2013-06-25 15:28:00,
2013-06-25 11:38:00,83.5,45.0,-100.00,North,-999,0.0,0.0,26,0.00,,,-99.99,FreeWX-Wi 1.01,2013-06-25 15:38:00,
2013-06-25 11:48:00,83.5,45.0,-100.00,North,-999,0.0,0.0,26,0.00,,,-99.99,FreeWX-Wi 1.01,2013-06-25 15:48:00,
2013-06-25 11:58:00,83.5,45.0,-100.00,North,-999,0.0,0.0,26,0.00,,,-99.99,FreeWX-Wi 1.01,2013-06-25 15:58:00,
2013-06-25 12:08:00,83.5,45.0,-100.00,North,-999,0.0,0.0,26,0.00,,,-99.99,FreeWX-Wi 1.01,2013-06-25 16:08:00,
2013-06-25 12:18:00,83.5,45.0,-100.00,North,-999,0.0,0.0,26,0.00,,,-99.99,FreeWX-Wi 1.01,2013-06-25 16:18:00,
2013-06-25 12:28:00,83.7,45.1,-100.00,North,-999,0.0,0.0,26,0.00,,,-99.99,FreeWX-Wi 1.01,2013-06-25 16:28:00,
2013-06-25 12:38:00,83.8,42.1,-100.00,North,-999,0.0,0.0,23,0.00,,,-99.99,FreeWX-Wi 1.01,2013-06-25 16:38:00,
2013-06-25 12:48:00,84.0,42.3,-100.00,North,-999,0.0,0.0,23,0.00,,,-99.99,FreeWX-Wi 1.01,2013-06-25 16:48:00,
2013-06-25 12:58:00,84.4,44.6,-100.00,North,-999,0.0,0.0,25,0.00,,,-99.99,FreeWX-Wi 1.01,2013-06-25 16:58:00,
2013-06-25 13:08:00,84.7,42.8,-100.00,North,-999,0.0,0.0,23,0.00,,,-99.99,FreeWX-Wi 1.01,2013-06-25 17:08:00,
2013-06-25 13:18:00,84.7,42.8,-100.00,North,-999,0.0,0.0,23,0.00,,,-99.99,FreeWX-Wi 1.01,2013-06-25 17:18:00,
2013-06-25 13:28:00,85.1,43.2,-100.00,North,-999,0.0,0.0,23,0.00,,,-99.99,FreeWX-Wi 1.01,2013-06-25 17:28:00,
2013-06-25 13:38:00,85.3,43.3,-100.00,North,-999,0.0,0.0,23,0.00,,,-99.99,FreeWX-Wi 1.01,2013-06-25 17:38:00,
2013-06-25 13:48:00,85.5,43.3,-100.00,North,-999,0.0,0.0,23,0.00,,,-99.99,FreeWX-Wi 1.01,2013-06-25 17:48:00,
2013-06-25 13:58:00,85.5,43.3,-100.00,North,-999,0.0,0.0,23,0.00,,,-99.99,FreeWX-Wi 1.01,2013-06-25 17:58:00,
2013-06-25 14:08:00,85.6,43.5,-100.00,North,-999,0.0,0.0,23,0.00,,,-99.99,FreeWX-Wi 1.01,2013-06-25 18:08:00,
2013-06-25 14:18:00,85.6,43.5,-100.00,North,-999,0.0,0.0,23,0.00,,,-99.99,FreeWX-Wi 1.01,2013-06-25 18:18:00,
2013-06-25 14:28:00,85.8,43.7,-100.00,North,-999,0.0,0.0,23,0.00,,,-99.99,FreeWX-Wi 1.01,2013-06-25 18:28:00,
2013-06-25 14:38:00,86.0,42.6,-100.00,North,-999,0.0,0.0,22,0.00,,,-99.99,FreeWX-Wi 1.01,2013-06-25 18:38:00,
2013-06-25 14:48:00,86.0,42.6,-100.00,North,-999,0.0,0.0,22,0.00,,,-99.99,FreeWX-Wi 1.01,2013-06-25 18:48:00,
2013-06-25 14:58:00,86.0,42.6,-100.00,North,-999,0.0,0.0,22,0.00,,,-99.99,FreeWX-Wi 1.01,2013-06-25 18:58:00,
2013-06-25 15:08:00,85.8,43.7,-100.00,North,-999,0.0,0.0,23,0.00,,,-99.99,FreeWX-Wi 1.01,2013-06-25 19:08:00,
2013-06-25 15:18:00,85.6,43.5,-100.00,North,-999,0.0,0.0,23,0.00,,,-99.99,FreeWX-Wi 1.01,2013-06-25 19:18:00,
2013-06-25 15:28:00,85.6,43.5,-100.00,North,-999,0.0,0.0,23,0.00,,,-99.99,FreeWX-Wi 1.01,2013-06-25 19:28:00,
2013-06-25 15:38:00,85.6,43.5,-100.00,North,-999,0.0,0.0,23,0.00,,,-99.99,FreeWX-Wi 1.01,2013-06-25 19:38:00,
2013-06-25 15:48:00,85.5,43.3,-100.00,North,-999,0.0,0.0,23,0.00,,,-99.99,FreeWX-Wi 1.01,2013-06-25 19:48:00,
2013-06-25 15:58:00,85.3,43.3,-100.00,North,-999,0.0,0.0,23,0.00,,,-99.99,FreeWX-Wi 1.01,2013-06-25 19:58:00,
2013-06-25 16:08:00,85.1,43.2,-100.00,North,-999,0.0,0.0,23,0.00,,,-99.99,FreeWX-Wi 1.01,2013-06-25 20:08:00,
2013-06-25 16:18:00,84.9,43.0,-100.00,North,-999,0.0,0.0,23,0.00,,,-99.99,FreeWX-Wi 1.01,2013-06-25 20:18:00,
2013-06-25 16:28:00,84.9,43.0,-100.00,North,-999,0.0,0.0,23,0.00,,,-99.99,FreeWX-Wi 1.01,2013-06-25 20:28:00,
2013-06-25 16:38:00,84.7,42.8,-100.00,North,-999,0.0,0.0,23,0.00,,,-99.99,FreeWX-Wi 1.01,2013-06-25 20:38:00,
2013-06-25 16:48:00,84.7,42.8,-100.00,North,-999,0.0,0.0,23,0.00,,,-99.99,FreeWX-Wi 1.01,2013-06-25 20:48:00,
2013-06-25 16:58:00,84.6,42.6,-100.00,North,-999,0.0,0.0,23,0.00,,,-99.99,FreeWX-Wi 1.01,2013-06-25 20:58:00,
2013-06-25 17:08:00,84.4,42.4,-100.00,North,-999,0.0,0.0,23,0.00,,,-99.99,FreeWX-Wi 1.01,2013-06-25 21:08:00,
2013-06-25 17:18:00,84.2,42.4,-100.00,North,-999,0.0,0.0,23,0.00,,,-99.99,FreeWX-Wi 1.01,2013-06-25 21:18:00,
2013-06-25 17:28:00,84.0,42.3,-100.00,North,-999,0.0,0.0,23,0.00,,,-99.99,FreeWX-Wi 1.01,2013-06-25 21:28:00,
2013-06-25 17:38:00,83.8,42.1,-100.00,North,-999,0.0,0.0,23,0.00,,,-99.99,FreeWX-Wi 1.01,2013-06-25 21:38:00,
2013-06-25 17:48:00,83.7,41.9,-100.00,North,-999,0.0,0.0,23,0.00,,,-99.99,FreeWX-Wi 1.01,2013-06-25 21:48:00,
2013-06-25 17:58:00,83.5,41.7,-100.00,North,-999,0.0,0.0,23,0.00,,,-99.99,FreeWX-Wi 1.01,2013-06-25 21:58:00,
2013-06-25 18:08:00,83.1,41.5,-100.00,North,-999,0.0,0.0,23,0.00,,,-99.99,FreeWX-Wi 1.01,2013-06-25 22:08:00,
2013-06-25 18:19:00,82.8,41.2,-100.00,North,-999,0.0,0.0,23,0.00,,,-99.99,FreeWX-Wi 1.01,2013-06-25 22:19:00,
2013-06-25 18:29:00,82.6,41.0,-100.00,North,-999,0.0,0.0,23,0.00,,,-99.99,FreeWX-Wi 1.01,2013-06-25 22:29:00,
2013-06-25 18:39:00,82.0,40.6,-100.00,North,-999,0.0,0.0,23,0.00,,,-99.99,FreeWX-Wi 1.01,2013-06-25 22:39:00,
2013-06-25 18:49:00,81.7,40.3,-100.00,North,-999,0.0,0.0,23,0.00,,,-99.99,FreeWX-Wi 1.01,2013-06-25 22:49:00,
2013-06-25 18:59:00,81.5,40.1,-100.00,North,-999,0.0,0.0,23,0.00,,,-99.99,FreeWX-Wi 1.01,2013-06-25 22:59:00,
2013-06-25 19:09:00,81.3,39.9,-100.00,North,-999,0.0,0.0,23,0.00,,,-99.99,FreeWX-Wi 1.01,2013-06-25 23:09:00,
2013-06-25 19:19:00,81.1,43.0,-100.00,North,-999,0.0,0.0,26,0.00,,,-99.99,FreeWX-Wi 1.01,2013-06-25 23:19:00,
2013-06-25 19:29:00,80.8,42.6,-100.00,North,-999,0.0,0.0,26,0.00,,,-99.99,FreeWX-Wi 1.01,2013-06-25 23:29:00,
2013-06-25 19:39:00,80.6,42.4,-100.00,North,-999,0.0,0.0,26,0.00,,,-99.99,FreeWX-Wi 1.01,2013-06-25 23:39:00,
2013-06-25 19:49:00,80.2,42.3,-100.00,North,-999,0.0,0.0,26,0.00,,,-99.99,FreeWX-Wi 1.01,2013-06-25 23:49:00,
2013-06-25 20:00:00,79.9,41.9,-100.00,North,-999,0.0,0.0,26,0.00,,,-99.99,FreeWX-Wi 1.01,2013-06-26 00:00:00,
2013-06-25 20:11:00,79.7,41.7,-100.00,North,-999,0.0,0.0,26,0.00,,,-99.99,FreeWX-Wi 1.01,2013-06-26 00:11:00,
2013-06-25 20:21:00,79.3,39.4,-100.00,North,-999,0.0,0.0,24,0.00,,,-99.99,FreeWX-Wi 1.01,2013-06-26 00:21:00,
2013-06-25 20:31:00,79.0,41.2,-100.00,North,-999,0.0,0.0,26,0.00,,,-99.99,FreeWX-Wi 1.01,2013-06-26 00:31:00,
2013-06-25 20:41:00,78.3,41.5,-100.00,North,-999,0.0,0.0,27,0.00,,,-99.99,FreeWX-Wi 1.01,2013-06-26 00:41:00,
2013-06-25 20:51:00,77.5,40.8,-100.00,North,-999,0.0,0.0,27,0.00,,,-99.99,FreeWX-Wi 1.01,2013-06-26 00:51:00,
2013-06-25 21:01:00,76.5,42.6,-100.00,North,-999,0.0,0.0,30,0.00,,,-99.99,FreeWX-Wi 1.01,2013-06-26 01:01:00,
2013-06-25 21:11:00,75.9,39.6,-100.00,North,-999,0.0,0.0,27,0.00,,,-99.99,FreeWX-Wi 1.01,2013-06-26 01:11:00,
2013-06-25 21:21:00,75.6,41.9,-100.00,North,-999,0.0,0.0,30,0.00,,,-99.99,FreeWX-Wi 1.01,2013-06-26 01:21:00,
2013-06-25 21:31:00,75.2,41.5,-100.00,North,-999,0.0,0.0,30,0.00,,,-99.99,FreeWX-Wi 1.01,2013-06-26 01:31:00,
2013-06-25 21:41:00,75.0,41.5,-100.00,North,-999,0.0,0.0,30,0.00,,,-99.99,FreeWX-Wi 1.01,2013-06-26 01:41:00,
2013-06-25 21:51:00,74.7,41.2,-100.00,North,-999,0.0,0.0,30,0.00,,,-99.99,FreeWX-Wi 1.01,2013-06-26 01:51:00,
2013-06-25 22:01:00,74.3,40.8,-100.00,North,-999,0.0,0.0,30,0.00,,,-99.99,FreeWX-Wi 1.01,2013-06-26 02:01:00,
2013-06-25 22:11:00,74.1,43.2,-100.00,North,-999,0.0,0.0,33,0.00,,,-99.99,FreeWX-Wi 1.01,2013-06-26 02:11:00,
2013-06-25 22:21:00,73.8,44.4,-100.00,North,-999,0.0,0.0,35,0.00,,,-99.99,FreeWX-Wi 1.01,2013-06-26 02:21:00,
2013-06-25 22:31:00,73.6,44.2,-100.00,North,-999,0.0,0.0,35,0.00,,,-99.99,FreeWX-Wi 1.01,2013-06-26 02:31:00,
2013-06-25 22:41:00,73.2,44.6,-100.00,North,-999,0.0,0.0,36,0.00,,,-99.99,FreeWX-Wi 1.01,2013-06-26 02:41:00,
2013-06-25 22:52:00,72.9,44.4,-100.00,North,-999,0.0,0.0,36,0.00,,,-99.99,FreeWX-Wi 1.01,2013-06-26 02:52:00,
2013-06-25 23:02:00,72.5,44.8,-100.00,North,-999,0.0,0.0,37,0.00,,,-99.99,FreeWX-Wi 1.01,2013-06-26 03:02:00,
2013-06-25 23:12:00,72.3,44.6,-100.00,North,-999,0.0,0.0,37,0.00,,,-99.99,FreeWX-Wi 1.01,2013-06-26 03:12:00,
2013-06-25 23:22:00,72.1,45.1,-100.00,North,-999,0.0,0.0,38,0.00,,,-99.99,FreeWX-Wi 1.01,2013-06-26 03:22:00,
2013-06-25 23:32:00,71.8,44.8,-100.00,North,-999,0.0,0.0,38,0.00,,,-99.99,FreeWX-Wi 1.01,2013-06-26 03:32:00,
2013-06-25 23:42:00,71.6,45.3,-100.00,North,-999,0.0,0.0,39,0.00,,,-99.99,FreeWX-Wi 1.01,2013-06-26 03:42:00,
2013-06-25 23:52:00,71.2,45.7,-100.00,North,-999,0.0,0.0,40,0.00,,,-99.99,FreeWX-Wi 1.01,2013-06-26 03:52:00,